Skip Page Navigation
NASA JPL Caltech
NASA Logo - Jet Propulsion Laboratory + View the NASA Portal
+ Center for Near-Earth Object Studies
JPL Home Earth Solar System Stars & Galaxies Technology
JPL Solar System Dynamics
BODIES ORBITS EPHEMERIDES TOOLS PHYSICAL DATA DISCOVERY FAQ SITE MAP
IMPORTANT: The SSD Announcement email list is now available. Major changes are coming in the near future, including possible hostname and/or URL changes. To be notified of such changes, subscribe to this email list.

Please visit this page for more details.


JPL Small-Body Database Browser
Search: [ help ]  
162508 (2000 QA65)
Classification: Main-belt Asteroid          SPK-ID: 2162508
Ephemeris | Orbit Diagram | Orbital Elements | Mission Design | Physical Parameters | Discovery Circumstances | Close-Approach Data ]

[ hide orbit diagram ]

For accurate long-term ephemerides, please instead use our Horizons system.This orbit viewer was implemented using two-body methods, and hence should not be used for determining accurate long-term trajectories (over several years or decades) or planetary encounter circumstances.


[ revert to old Java-based viewer ]

Orbital Elements at Epoch 2459000.5 (2020-May-31.0) TDB
Reference: JPL 19 (heliocentric ecliptic J2000)
 Element Value Uncertainty (1-sigma)   Units 
e .1762892520513767 3.451e-08  
a 2.339081955977443 1.1032e-08 au
q 1.926726947471308 8.2808e-08 au
i 7.724771464350686 3.7701e-06 deg
node 88.16412499287547 3.1569e-05 deg
peri 329.6748707358122 3.3689e-05 deg
M 136.3213503495075 1.1713e-05 deg
tp 2458505.701967982399
(2019-Jan-22.20196798)
4.1881e-05 TDB
period 1306.672000164645
3.58
9.2442e-06
2.531e-08
d
yr
n .2755090795200623 1.9491e-09 deg/d
Q 2.751436964483578 1.2977e-08 au
  Orbit Determination Parameters
   # obs. used (total)      666  
   data-arc span      6720 days (18.40 yr)  
   first obs. used      2000-08-28  
   last obs. used      2019-01-21  
   planetary ephem.      DE431  
   SB-pert. ephem.      SB431-N16  
   condition code      0  
   norm. resid. RMS      .49945  
   source      ORB  
   producer      Otto Matic  
   solution date      2019-Jul-13 08:25:49  

Additional Information
 Earth MOID = .943772 au 
 Jupiter MOID = 2.58134 au 
 T_jup = 3.532 
[ show covariance matrix ]

Ephemeris | Orbit Diagram | Orbital Elements | Mission Design | Physical Parameters | Discovery Circumstances | Close-Approach Data ]

Physical Parameter Table
Parameter Symbol Value Units Sigma Reference Notes
absolute magnitude H 16.0   n/a MPO401368  

162508 (2000 QA65)          Discovered 2000-Aug-28 by LINEAR at Socorro
Reference: 20070926/Numbers.arcLast Updated: 2007-09-30

[ show close-approach data ]
Ephemeris | Orbit Diagram | Orbital Elements | Mission Design | Physical Parameters | Discovery Circumstances | Close-Approach Data ]
ABOUT SSD CREDITS/AWARDS PRIVACY/COPYRIGHT GLOSSARY LINKS
FirstGov 2020-Feb-20 20:39 UT
(server date/time)  
NASA Home Page
Site Manager:   Ryan S. Park
Webmaster  Alan B. Chamberlin